TimeMDT,TemperatureF,Dew PointF,Humidity,Sea Level PressureIn,VisibilityMPH,Wind Direction,Wind SpeedMPH,Gust SpeedMPH,PrecipitationIn,Events,Conditions,WindDirDegrees,DateUTC
12:52 AM,33.1,24.1,70,30.12,10.0,South,8.1,-,N/A,,Clear,180,2011-10-16 06:52:00
1:52 AM,33.1,24.1,70,30.11,10.0,SE,8.1,-,N/A,,Clear,130,2011-10-16 07:52:00
2:52 AM,39.0,26.1,60,30.08,10.0,Calm,Calm,-,N/A,,Clear,0,2011-10-16 08:52:00
3:52 AM,30.9,23.0,72,30.11,10.0,NE,3.5,-,N/A,,Clear,40,2011-10-16 09:52:00
4:52 AM,30.2,23.0,75,30.30,10.0,SSE,6.9,-,N/A,,Clear,150,2011-10-16 10:52:00
5:52 AM,28.0,21.0,75,30.17,10.0,WNW,3.5,-,N/A,,Clear,300,2011-10-16 11:52:00
6:52 AM,27.0,19.9,75,30.24,10.0,Calm,Calm,-,N/A,,Clear,0,2011-10-16 12:52:00
7:52 AM,30.2,21.2,69,30.31,10.0,Calm,Calm,-,N/A,,Clear,0,2011-10-16 13:52:00
8:52 AM,42.1,26.1,53,30.22,10.0,NNW,3.5,-,N/A,,Clear,340,2011-10-16 14:52:00
9:52 AM,48.9,28.0,44,30.21,10.0,Calm,Calm,-,N/A,,Clear,0,2011-10-16 15:52:00
10:52 AM,57.0,27.0,32,30.13,10.0,Calm,Calm,-,N/A,,Clear,0,2011-10-16 16:52:00
11:52 AM,63.0,26.1,25,30.11,10.0,South,4.6,-,N/A,,Clear,180,2011-10-16 17:52:00
12:52 PM,71.1,21.0,15,30.05,10.0,Variable,3.5,-,N/A,,Clear,0,2011-10-16 18:52:00
1:52 PM,73.9,17.1,12,29.99,10.0,SW,13.8,24.2,N/A,,Clear,220,2011-10-16 19:52:00
2:52 PM,73.4,8.6,8,30.16,10.0,SW,12.7,23.0,N/A,,Clear,230,2011-10-16 20:52:00
3:52 PM,73.9,10.0,9,29.96,10.0,WSW,21.9,26.5,N/A,,Clear,240,2011-10-16 21:52:00
4:52 PM,72.0,15.1,11,29.97,10.0,West,17.3,-,N/A,,Clear,260,2011-10-16 22:52:00
5:52 PM,66.9,19.0,16,29.99,10.0,WSW,13.8,-,N/A,,Clear,240,2011-10-16 23:52:00
6:52 PM,55.9,21.0,26,30.06,10.0,SW,9.2,-,N/A,,Clear,230,2011-10-17 00:52:00
7:52 PM,55.0,21.9,28,30.06,10.0,SSW,12.7,-,N/A,,Clear,210,2011-10-17 01:52:00
8:52 PM,57.9,18.0,21,30.00,10.0,WSW,16.1,-,N/A,,Clear,240,2011-10-17 02:52:00
9:52 PM,51.1,18.0,27,30.01,10.0,SSW,9.2,-,N/A,,Clear,210,2011-10-17 03:52:00
10:52 PM,50.0,19.0,29,29.97,10.0,WSW,3.5,-,N/A,,Clear,250,2011-10-17 04:52:00
11:52 PM,54.0,19.0,25,29.92,10.0,South,13.8,-,N/A,,Clear,190,2011-10-17 05:52:00